SCP
0 0 0 0 0 0 0 0 0 0 1 1 1 1 0 0 0 0 0 0 0 0 0 0 0 0 0 0 0 0 0 0 0 0 0 0 0 0 0 0 0 0 0 0
0 0 0 0 0 0 0 0 0 0 1 1 1 0 0 0 0 0 0 0 0 0 0 0 0 0 0 0 0 0 0 0 0 0 0 0 0 0 0 0 0 0 0 0
0 0 0 0 0 0 0 0 1 1 1 0 0 0 0 0 0 0 0 0 0 0 0 0 0 0 0 0 0 0 0 0 0 0 0 0 0 0 0 0 0 0 0 0
0 0 0 0 0 0 0 0 0 0 0 0 0 0 0 0 0 0 0 0 0 0 0 0 0 0 0 0 0 0 0 0 0 0 0 0 0 0 0 0 0 0 0 0
0 0 0 0 0 0 0 0 0 0 0 0 0 0 0 0 0 0 0 0 0 0 0 0 0 0 0 0 0 0 0 0 0 0 0 0 0 0 0 0 0 0 0 0
0 0 0 0 0 0 0 0 0 0 0 0 0 0 0 0 0 0 0 0 0 0 0 0 0 0 0 0 0 0 0 0 0 0 0 0 0 0 0 0 0 0 0 0
0 0 0 0 0 0 0 0 0 0 0 0 0 0 0 0 0 0 0 0 0 0 0 0 0 0 0 0 0 0 0 0 0 0 0 0 0 0 0 0 0 0 0 0
0 0 0 0 0 0 0 0 0 0 0 0 0 0 0 0 0 0 0 0 0 0 0 0 0 0 0 0 0 0 0 0 0 0 0 0 0 0 0 0 0 0 0 0
0 0 0 0 0 0 0 0 0 0 0 0 0 0 0 0 0 0 0 0 0 0 0 0 0 0 0 0 0 0 0 0 0 0 0 0 0 0 0 0 0 0 0 0
0 0 0 0 0 0 0 0 0 0 0 0 0 0 0 0 0 0 0 0 0 0 0 0 0 0 0 0 0 0 0 0 0 0 0 0 0 0 0 0 0 0 0 0
0 0 0 0 0 0 0 0 0 0 0 0 0 0 0 0 0 0 0 0 0 0 0 0 0 0 0 0 0 0 0 0 0 0 0 0 0 0 0 0 0 0 0 0
0 0 0 0 0 0 0 0 0 0 0 0 0 0 0 0 0 0 0 0 0 0 0 0 0 0 0 0 0 0 0 0 0 0 0 0 0 0 0 0 0 0 0 0
0 0 0 0 0 0 0 0 0 0 0 0 0 0 0 0 0 0 0 0 0 0 0 0 0 0 0 0 0 0 0 0 0 0 0 0 0 0 0 0 0 0 0 0
0 0 0 0 0 0 0 0 0 0 0 0 0 0 0 0 0 0 0 0 0 0 0 0 0 0 0 0 0 0 0 0 0 0 0 0 0 0 0 0 0 0 0 0
0 0 0 0 0 0 0 0 0 0 0 0 0 0 0 0 0 0 0 0 0 0 0 0 0 0 0 0 0 0 0 0 0 0 0 0 0 0 0 0 0 0 0 0
0 0 0 0 0 0 0 0 0 0 0 0 0 0 0 0 0 0 0 0 0 0 0 0 0 0 0 0 0 0 0 0 0 0 0 0 0 0 0 0 0 0 0 0
0 0 0 0 0 0 0 0 0 0 0 0 0 0 0 0 0 0 0 0 0 0 0 0 0 0 0 0 0 0 0 0 0 0 0 0 0 0 0 0 0 0 0 0
0 0 0 0 0 0 0 0 0 0 0 0 0 0 0 0 0 0 0 0 0 0 0 0 0 0 0 0 0 0 0 0 0 0 0 0 -0 -0 -0 0 0 0 0 0
0 0 0 0 0 0 0 0 0 0 0 0 0 0 0 0 0 0 0 0 0 0 0 0 0 0 0 0 0 0 0 0 0 0 0 0 0 0 0 0 0 0 0 0
0 0 0 0 0 0 0 0 0 0 0 0 0 0 0 0 0 0 0 0 0 0 0 0 0 0 0 0 0 0 0 0 0 0 0 0 0 0 0 0 0 0 0 -0
0 0 0 0 0 0 0 0 0 0 0 0 0 0 0 0 0 0 0 0 0 0 0 0 0 0 0 -0 0 0 0 0 0 0 0 0 0 0 0 0 0 0 0 -0
0 0 0 0 0 0 0 0 0 0 0 0 0 0 0 0 0 0 0 0 0 0 0 0 0 0 -0 0 0 0 0 0 0 0 0 0 0 0 0 0 0 0 0 0
0 0 0 0 0 0 0 0 0 0 0 0 0 0 0 0 0 0 0 0 0 0 0 0 0 0 0 0 0 0 0 0 0 0 0 0 0 0 0 0 0 0 0 0
0 0 0 0 0 0 0 0 0 0 0 0 0 0 0 0 0 0 0 0 0 0 0 0 0 0 0 0 0 0 -0 0 0 0 0 0 0 0 0 0 0 0 0 0
0 0 0 0 0 0 0 0 0 0 0 0 0 0 0 0 0 0 0 0 0 0 0 0 0 0 0 0 0 0 -0 -0 0 0 0 0 0 0 0 0 0 0 0 0
0 0 0 0 0 0 0 0 0 0 0 0 0 0 0 0 0 0 0 0 0 0 0 0 0 0 0 0 0 0 0 0 0 0 0 0 0 0 0 0 0 0 0 0
0 0 0 0 0 0 0 0 0 -0 0 0 0 0 0 0 -0 0 0 0 0 0 0 0 0 0 0 0 0 0 0 0 0 0 0 0 0 0 0 0 0 0 0 0
Wind_Speed
4 7 7 5 8 11 10 9 7 4 6 7 10 12 12 12 13 12 12 11 11 10 9 9 10 10 10 10 10 10 11 11 10 8 7 7 6 6 5 4 5 5 5 5
8 6 4 3 2 5 5 7 7 9 9 10 13 12 12 12 12 12 12 11 11 10 10 9 9 9 10 9 9 9 9 9 8 7 6 6 5 5 5 5 5 5 5 6
9 6 5 2 8 8 10 13 10 9 9 12 13 11 10 11 12 12 11 11 10 9 9 8 7 7 7 7 7 7 7 7 6 6 5 4 5 6 5 5 5 4 5 5
7 6 4 6 9 8 10 15 13 14 14 15 15 14 12 11 13 12 11 10 9 9 8 7 6 6 6 7 6 6 6 5 5 4 5 5 5 5 4 3 3 2 2 3
5 4 4 7 10 10 7 12 12 13 14 15 16 15 12 10 11 11 10 10 8 8 8 6 6 5 6 6 5 5 5 5 4 5 5 4 4 3 3 2 1 1 1 1
7 6 4 5 6 6 2 7 9 10 10 9 7 6 5 7 10 11 10 8 8 7 7 6 5 5 5 4 4 4 4 4 4 4 4 4 3 3 2 1 2 2 1 1
6 3 6 10 12 8 4 5 7 10 9 8 7 8 9 10 10 10 10 9 8 7 6 5 5 4 4 4 4 4 4 4 4 3 2 3 2 1 2 2 2 2 2 2
6 4 5 12 9 9 7 8 9 11 12 13 14 14 12 11 10 10 9 9 7 6 6 4 4 4 4 4 4 3 3 3 2 1 1 3 0 1 2 3 3 3 2 2
5 5 6 9 10 9 8 9 9 10 11 13 14 13 12 11 9 9 9 8 6 6 5 4 3 3 4 4 3 3 3 3 2 1 1 0 1 2 1 2 2 3 3 3
4 7 8 9 9 9 8 8 9 10 11 12 13 13 12 10 9 8 8 7 6 6 5 4 3 3 4 3 2 2 2 1 2 2 2 1 2 2 2 4 5 6 6 5
4 7 8 9 8 8 8 8 9 10 11 13 13 13 12 10 9 8 7 6 5 5 5 6 5 4 4 3 2 1 0 1 1 1 2 2 0 3 4 6 5 5 6 6
4 5 6 7 7 7 7 7 9 11 12 12 12 13 12 10 8 8 7 6 5 5 6 5 5 4 4 3 2 1 1 1 2 1 1 2 1 4 8 7 8 7 5 4
7 7 8 8 8 8 8 8 10 11 13 13 12 12 11 10 8 8 7 7 7 6 6 5 4 4 3 2 2 2 2 3 4 4 3 2 2 1 4 5 3 2 1 2
5 5 7 8 8 8 9 10 12 13 13 13 12 11 10 10 9 9 8 7 6 6 5 4 4 4 2 2 2 3 3 2 3 4 3 3 2 3 3 3 3 2 3 3
6 7 9 9 10 10 10 12 13 13 13 12 11 10 10 10 9 8 7 7 5 5 5 5 4 3 2 3 3 4 3 2 2 3 3 2 3 4 4 4 3 3 2 1
9 9 9 10 11 11 11 12 13 13 12 12 11 10 10 10 9 8 6 5 5 6 5 4 4 4 4 4 5 3 1 2 3 3 3 3 3 4 4 4 4 3 3 4
8 8 10 11 11 12 12 12 12 12 12 12 11 11 10 9 8 7 6 6 6 5 4 4 6 7 6 6 6 5 2 4 2 2 4 4 4 4 4 4 4 3 3 2
8 9 10 11 12 12 13 13 12 12 12 12 11 10 9 8 7 6 6 4 4 4 5 6 6 7 7 7 6 7 4 2 3 4 5 4 4 3 4 4 4 4 3 2
11 12 12 13 13 13 13 13 13 12 11 10 10 9 8 8 7 5 4 2 3 5 5 5 3 5 4 5 5 5 2 3 4 4 4 2 0 3 4 4 4 4 4 4
13 14 14 14 14 14 13 13 12 11 10 10 10 9 8 7 6 4 3 5 5 5 4 3 5 4 4 5 6 5 4 4 4 4 3 3 4 4 4 5 5 5 5 5
14 14 15 14 14 14 13 13 12 11 10 10 9 8 8 6 5 3 2 5 5 4 4 1 2 5 5 8 9 4 5 5 4 4 3 4 4 5 5 5 5 5 5 5
14 14 14 14 14 13 11 11 11 11 10 9 9 9 7 6 5 4 6 5 5 5 4 4 5 6 9 11 6 5 6 5 4 4 4 4 5 5 5 5 5 6 5 5
13 13 14 14 13 12 12 11 11 10 9 9 9 8 7 4 3 4 5 4 5 5 5 6 5 7 11 9 3 6 6 4 4 4 4 4 5 5 5 5 5 5 5 5
13 13 13 13 13 12 12 11 11 9 9 9 8 7 6 4 4 6 7 6 5 4 5 2 4 8 10 6 3 5 5 4 4 4 5 5 5 5 5 5 5 5 5 6
13 13 13 13 12 10 11 11 10 10 10 8 9 8 6 3 5 7 6 7 7 4 4 4 8 9 7 2 7 7 6 6 6 5 5 5 5 5 5 5 5 5 4 4
12 11 11 10 8 8 9 9 9 8 8 8 8 7 5 4 7 7 5 6 6 6 5 5 5 5 1 6 6 6 5 4 3 4 6 5 6 5 5 4 6 5 4 4
13 10 9 9 9 9 9 9 9 9 8 8 8 7 6 6 6 6 6 5 5 4 2 2 3 5 6 6 6 5 5 5 4 4 5 5 4 4 4 4 4 4 4 4
Wind_Direction
275 223 229 282 321 322 308 310 312 29 77 104 108 112 112 113 114 112 108 102 97 90 83 80 79 79 78 79 81 86 90 90 88 86 85 84 81 76 67 52 55 51 49 51
288 258 244 255 299 293 331 2 27 68 64 83 96 102 109 111 110 106 101 98 95 90 84 80 79 80 80 78 79 82 87 91 92 93 91 90 88 77 66 56 48 42 39 46
297 310 302 11 19 22 31 32 34 55 75 89 86 87 98 106 103 100 98 97 95 92 87 82 80 85 92 93 93 92 92 96 98 95 87 78 80 75 64 56 51 45 43 53
299 319 336 50 21 24 48 51 57 80 85 86 86 78 74 90 104 108 109 107 104 100 96 91 90 92 95 96 99 105 109 107 102 98 87 79 72 65 60 50 38 38 54 60
308 316 80 38 4 360 37 56 55 86 99 108 109 90 69 72 91 103 106 106 103 103 102 99 97 98 100 101 104 104 100 98 92 85 83 79 73 66 64 50 17 338 71 55
312 330 34 25 335 320 15 74 47 81 104 122 119 92 93 97 98 100 101 103 106 105 103 104 102 102 105 108 108 105 104 99 87 74 75 73 64 44 40 353 323 325 10 352
334 12 67 1 355 355 39 75 66 78 84 88 83 103 121 115 106 106 106 107 108 107 107 110 118 120 118 121 117 109 107 101 91 91 101 95 70 12 325 314 321 316 310 317
1 23 37 9 29 52 87 98 88 89 94 98 104 111 116 117 116 116 116 116 116 113 110 115 125 130 123 117 113 114 113 111 112 100 68 99 76 294 301 312 308 308 321 340
43 74 83 64 76 90 96 97 98 103 109 115 118 120 121 120 120 119 119 119 119 121 121 126 133 135 120 125 130 128 122 123 124 95 38 28 282 287 291 312 334 346 357 6
89 108 102 92 89 86 86 95 104 111 118 122 123 124 123 122 121 121 123 128 132 128 121 118 116 115 116 108 104 104 118 152 184 192 228 243 279 312 6 20 16 3 7 7
92 115 105 88 86 85 90 98 106 114 119 124 128 129 128 126 126 128 129 126 126 124 121 115 110 105 100 98 86 84 160 248 272 260 265 264 219 41 42 66 60 30 16 3
76 77 99 104 92 92 97 103 113 119 122 127 129 127 126 125 126 125 123 123 122 117 109 107 105 95 87 89 86 51 319 304 294 288 280 304 124 112 67 103 109 90 63 19
81 79 94 100 91 90 99 107 115 119 122 123 122 124 125 125 124 121 119 119 115 108 101 95 90 84 72 56 35 19 339 338 325 332 335 346 354 113 136 120 119 127 96 357
93 99 104 100 99 98 104 108 110 112 116 119 121 122 123 123 122 119 117 114 114 113 111 102 85 71 48 32 1 331 320 348 313 318 329 349 4 23 71 124 153 167 192 251
94 89 108 111 109 108 112 116 117 118 121 121 123 126 126 123 120 117 114 112 111 103 90 78 63 37 4 8 343 315 321 7 340 327 336 9 23 43 54 56 71 91 102 152
115 115 121 123 121 123 124 125 125 127 128 129 128 126 123 119 115 112 111 107 94 76 62 45 26 0 358 10 335 309 91 55 338 335 14 32 41 51 55 56 56 59 54 30
138 138 137 134 133 133 131 131 130 131 132 130 128 126 125 121 119 116 107 94 85 76 56 36 18 351 359 14 341 329 103 141 216 335 45 38 33 40 53 52 51 55 65 55
135 136 138 140 139 136 134 134 134 134 133 133 134 133 130 127 121 113 106 113 112 88 58 45 22 339 353 23 350 327 357 65 71 58 61 44 14 32 51 53 50 53 64 87
131 132 135 137 138 140 139 137 137 135 137 140 136 130 125 121 120 122 129 105 73 78 54 41 331 297 351 46 331 296 2 59 85 84 92 123 342 50 56 56 54 53 51 39
135 136 138 141 144 142 140 139 137 140 142 137 132 131 128 127 131 128 104 74 53 41 41 28 329 1 17 37 332 328 51 46 58 69 63 64 65 61 57 57 59 57 51 43
141 143 146 146 143 143 142 141 143 145 142 140 141 137 131 136 139 135 142 104 78 30 343 274 352 16 26 354 315 336 62 59 62 60 57 64 68 65 62 61 61 59 54 44
147 150 149 145 144 144 144 146 148 146 145 148 144 137 141 151 138 101 62 71 78 15 350 48 56 30 358 332 318 49 62 61 69 70 64 66 70 72 67 65 65 63 56 50
151 151 149 148 148 147 150 154 153 150 151 148 142 149 162 168 166 149 116 93 75 28 30 50 21 346 339 319 1 70 66 59 71 83 81 82 82 78 77 75 72 70 61 54
152 152 151 150 151 156 159 158 151 152 156 154 154 161 165 172 137 99 103 105 71 53 72 72 305 308 310 295 35 63 69 69 70 73 76 81 85 83 78 75 76 78 75 65
155 155 155 157 162 164 161 156 155 163 169 164 159 166 189 187 130 118 121 125 145 179 158 189 246 271 284 32 70 66 54 44 34 35 68 67 77 80 75 72 74 76 73 69
158 161 161 168 168 166 166 167 169 175 175 164 164 176 179 143 122 127 150 164 169 210 223 203 206 214 162 80 82 95 113 126 106 78 71 74 76 76 74 74 75 74 72 58
164 163 165 175 177 178 178 178 176 178 176 170 169 173 163 153 155 168 177 178 182 195 188 139 91 81 78 81 84 87 85 84 88 95 94 90 92 94 93 83 76 78 85 69